DW2050 Weather Reports


time (UTC)temp
F
wind
direction
speed
knots
gust
knots
rain 1hr
in
rain 24hr
in
rain mn
in
humidity
%
barometer
mb
20260505171558 55 0 0.0 0.0 0.00 0.00 0.00 85 1016.7
20260505170057 55 0 0.0 0.0 0.00 0.00 0.00 85 1016.5
20260505164557 54 0 0.0 0.0 0.00 0.00 0.00 85 1016.5
20260505163102 54 0 0.0 0.0 0.00 0.00 0.00 85 1016.5
20260505161611 54 0 0.0 0.0 0.00 0.00 0.00 85 1016.6
20260505153050 53 0 0.0 0.0 0.00 0.00 0.00 87 1016.4
20260505151552 53 0 0.0 0.0 0.00 0.00 0.00 88 1016.2
20260505150104 53 0 0.0 0.0 0.00 0.00 0.00 88 1016.1
20260505130112 52 0 0.0 0.0 0.00 0.00 0.00 89 1015.6
20260505124555 52 0 0.0 0.0 0.00 0.00 0.00 89 1015.5
20260505123056 51 0 0.0 0.0 0.00 0.00 0.00 89 1015.4
20260505121558 51 0 0.0 0.0 0.00 0.00 0.00 89 1015.4
20260505120113 51 0 0.0 0.0 0.00 0.00 0.00 90 1015.3
20260505114555 51 0 0.0 0.0 0.00 0.00 0.00 90 1015.3
20260505113103 51 0 0.0 0.0 0.00 0.00 0.00 90 1015.1
20260505111547 51 0 0.0 0.0 0.00 0.00 0.00 90 1015.2
20260505101553 51 0 0.0 0.0 0.00 0.00 0.00 89 1014.5
20260505100057 51 0 0.0 0.0 0.00 0.00 0.00 89 1014.6
20260505094623 51 0 0.0 0.0 0.00 0.00 0.00 88 1014.7
20260505093101 51 0 0.0 0.0 0.00 0.00 0.00 88 1014.5
20260505091556 51 0 0.0 1.7 0.00 0.00 0.00 87 1014.4
20260505084556 52 0 0.0 1.7 0.00 0.00 0.00 86 1014.1
20260505083100 52 0 0.0 0.9 0.00 0.00 0.00 86 1014.2
20260505081558 53 0 0.0 1.7 0.00 0.00 0.00 85 1014.2
20260505080053 53 0 0.0 0.9 0.00 0.00 0.00 85 1014.0
20260505074553 54 0 0.0 1.7 0.00 0.00 0.00 84 1013.9
20260505073053 54 212 0.0 1.7 0.00 0.00 0.00 84 1013.7
20260505071552 55 0 0.0 2.6 0.00 0.00 0.00 84 1013.6
20260505070058 55 0 0.0 1.7 0.00 0.00 0.00 83 1013.5
20260505064556 55 0 0.0 0.9 0.00 0.00 0.00 82 1013.3
20260505063052 56 172 0.0 0.9 0.00 0.00 0.00 82 1013.0
20260505061559 56 0 0.0 0.9 0.00 0.00 0.00 81 1012.9
20260505060059 57 0 0.0 0.9 0.00 0.00 0.00 80 1013.0
20260505054558 58 0 0.0 1.7 0.00 0.00 0.00 79 1012.9
20260505053053 59 0 0.0 1.7 0.00 0.00 0.00 78 1012.7
20260505051556 59 0 0.0 1.7 0.00 0.00 0.00 76 1012.7
20260505041558 63 0 0.0 3.5 0.00 0.00 0.00 71 1011.9
20260505040105 64 0 0.0 2.6 0.00 0.00 0.00 70 1011.8
20260505034553 65 0 0.0 2.6 0.00 0.00 0.00 69 1011.5
20260505033051 66 263 0.0 3.5 0.00 0.00 0.00 68 1011.2
20260505031558 67 203 0.0 2.6 0.00 0.00 0.00 67 1011.1
20260505030058 67 219 0.0 2.6 0.00 0.00 0.00 67 1010.9
20260505024553 68 0 0.0 3.5 0.00 0.00 0.00 67 1010.9
20260505023052 69 271 0.0 2.6 0.00 0.00 0.00 66 1010.9
20260505021555 70 162 0.0 2.6 0.00 0.00 0.00 67 1010.8
20260505020052 71 311 0.0 2.6 0.00 0.00 0.00 65 1010.7
20260505014604 72 307 0.0 3.5 0.00 0.00 0.00 63 1010.7
20260505013051 73 142 0.0 3.5 0.00 0.00 0.00 63 1010.7
20260505011553 73 0 0.9 5.2 0.00 0.00 0.00 61 1010.9
20260505010052 74 0 0.9 6.1 0.00 0.00 0.00 61 1011.1
20260505004620 75 235 0.9 6.1 0.00 0.00 0.00 60 1011.1
20260505003053 75 254 0.9 4.3 0.00 0.00 0.00 59 1011.2
20260505001554 75 309 0.9 3.5 0.00 0.00 0.00 58 1011.3
20260505000057 75 273 0.9 5.2 0.00 0.00 0.00 59 1011.3
20260504234553 75 280 0.0 5.2 0.00 0.00 0.00 61 1011.4
20260504233052 74 326 0.0 4.3 0.00 0.00 0.00 61 1011.6
20260504231547 74 313 0.9 5.2 0.00 0.00 0.00 61 1011.6
20260504230054 73 209 0.0 2.6 0.00 0.00 0.00 61 1011.6
20260504224551 73 0 0.0 2.6 0.00 0.00 0.00 61 1011.7
20260504223051 72 78 0.0 1.7 0.00 0.00 0.00 62 1011.9
20260504221557 72 194 0.0 1.7 0.00 0.00 0.00 64 1012.0
20260504220054 71 292 0.9 5.2 0.00 0.00 0.00 61 1012.2
20260504214602 70 140 0.0 3.5 0.00 0.00 0.00 64 1012.4
20260504213055 69 0 0.0 3.5 0.00 0.00 0.00 64 1012.5
20260504211551 68 0 0.0 2.6 0.00 0.00 0.00 67 1012.8
20260504204610 67 285 0.0 2.6 0.00 0.00 0.00 69 1013.3
20260504203122 66 122 0.9 4.3 0.00 0.00 0.00 69 1013.4
20260504201554 64 0 0.0 6.1 0.00 0.00 0.00 73 1013.5
20260504200051 63 127 0.9 3.5 0.00 0.00 0.00 73 1013.7
20260504194553 62 258 0.9 5.2 0.00 0.00 0.00 75 1013.7
20260504193056 60 0 0.0 4.3 0.00 0.00 0.00 79 1013.8
20260504191558 59 321 0.0 2.6 0.00 0.00 0.00 80 1013.9
20260504190055 58 0 0.9 3.5 0.00 0.00 0.00 80 1014.0
20260504184559 58 272 0.9 5.2 0.00 0.00 0.00 81 1014.1
20260504183104 57 0 0.0 2.6 0.00 0.00 0.00 82 1014.2
20260504181554 57 255 0.0 3.5 0.00 0.00 0.00 82 1014.1
20260504180113 57 271 0.9 3.5 0.00 0.00 0.00 82 1014.2
20260504174553 57 0 1.7 3.5 0.00 0.00 0.00 82 1014.0
20260504173107 56 226 0.9 3.5 0.00 0.00 0.00 83 1014.1